User: anonymous   Login
Location: Mentone
(34.5413°N, 85.5351°W)
Time: 20:44:59
(UTC-05:00)
Language:

Cosmos 2026 Rocket - Orbit

View from above orbital plane
View from above orbital plane
View from above satellite
View from above satellite

Ground track
Ground track

The orbit data is extracted from the following two-line orbital elements,

1 20046U 89042B   16270.74951632  .00000098  00000-0  81593-4 0  9995
2 20046  82.9374 139.5304 0043402  87.2137 337.3114 13.78069578372977
Epoch (UTC): 26 September 2016 17:59:18
Eccentricity: 0.0043402
inclination: 82.9374°
perigee height: 939 km
apogee height: 1002 km
right ascension of ascending node: 139.5304°
argument of perigee: 87.2137°
revolutions per day: 13.78069578
mean anomaly at epoch: 337.3114°
orbit number at epoch: 37297

The dashed part of the orbit path shows where the satellite is in the earth's shadow,  

DLR